Location: Unspecified
(0.0000°N, 0.0000°E)
Time: 18:56:02
(UTC+00:00)

Delta IV Demo - Visible Passes

Search period start: 21 October 2019 00:00
Search period end: 31 October 2019 00:00
Orbit: 17875 x 36457 km, 16.5° (Epoch: 20 October)

Date Brightness Start Highest point End Pass type
(mag) Time Alt. Az. Time Alt. Az. Time Alt. Az.
22 Oct 11.6 17:46:46 10° WSW 22:57:08 88° W 11:46:58 10° ESE daylight
24 Oct 11.8 22:48:15 10° WSW 02:09:18 34° W 05:01:58 10° E visible
27 Oct 11.5 16:05:44 10° W 20:46:24 77° ESE 10:09:36 10° ESE daylight
